Regional Weather Roundup
Issued by NWS Grand Forks, ND

Home | Current Version | Previous Version | Graphics & Text | Print | Product List | Glossary On
Versions: 1 2 3 4 5 6 7 8 9 10 11 12 13 14 15 16 17 18 19 20 21 22 23 24 25 26 27 28 29 30 31 32 33 34 35 36 37 38 39 40 41 42 43 44 45 46 47 48 49 50
000
ASUS43 KFGF 010231
RWRFGF
PRAIRIE TO PINES  WEATHER ROUNDUP
NATIONAL WEATHER SERVICE EASTERN NORTH DAKOTA/GRAND FORKS ND
900 PM CDT SAT APR 30 2016

 **SATELLITE DATA USED TO AUGMENT SKY COVER AT AUTOMATED STATIONS**
 *****  WEATHER ACROSS EASTERN NORTH DAKOTA  *****

CITY           SKY/WX    TMP DP  RH WIND       PRES   REMARKS
GRAND FORKS    PTCLDY    53  29  39 NE12      30.24R
GRAND FRKS AFB CLEAR     51  27  39 E10       30.24R
DEVILS LAKE    CLEAR     51  30  44 NE9       30.25R
FARGO          CLOUDY    55  27  34 NE16      30.17R
WAHPETON ARPT  CLOUDY    52  30  43 NE5       30.16R
$$

 ***** WEATHER ACROSS CENTRAL AND WESTERN NORTH DAKOTA  *****

CITY           SKY/WX    TMP DP  RH WIND       PRES   REMARKS
BISMARCK       CLEAR     53  29  39 NE10      30.23R
MINOT          CLEAR     54  27  35 NE7       30.26R
JAMESTOWN      CLOUDY    51  27  39 NE16      30.20R
MINOT AFB      CLEAR     54  28  36 E7        30.25R
GARRISON         N/A     55  29  36 E5        30.25R
WILLISTON      CLEAR     56  30  37 E6        30.27R
DICKINSON      PTCLDY    46  27  47 NE7       30.24R
HETTINGER      PTCLDY    47  28  47 NE7       30.24R
$$

 *****  OTHER AIRPORT OBSERVATIONS IN OUR AREA  *****

CITY           SKY/WX    TMP DP  RH WIND       PRES   REMARKS
WALHALLA       FAIR      54  30  40 NE5       30.27S
GRAFTON AIRPOR FAIR      46  30  53 E8        30.28R
VALLEY CITY AR FAIR      50  28  43 NE12      30.22R
CANDO          FAIR      50  27  40 NE8       30.29R
CAVALIER APRT  FAIR      54  27  35 NE8       30.26S
GWINNER        FAIR      52  32  46 NE14      30.16R
SHEYENNE NWR     N/A     55  27  34 NE10      29.95S
ROLLA          FAIR      46  28  49 NE9       30.29S
 ***** THE ABOVE OBSERVATIONS ARE NON NWS ARE NOT QUALITY
       CONTROLLED AND MAY MIS-REPORT RAIN FOR SNOW...
$$

  *****  WEATHER ACROSS NORTHERN MINNESOTA  *****

CITY           SKY/WX    TMP DP  RH WIND       PRES   REMARKS
FLAG ISLAND    CLEAR     52  27  37 NE5       30.27S
WARROAD        CLEAR     45  32  61 NE7       30.28R
ROSEAU         CLEAR     45  36  70 CALM      30.27S
HALLOCK        CLEAR     50  27  40 E7        30.26S
THF RVR FALLS  CLEAR     50  27  40 N9        30.25R
BAUDETTE       CLEAR     49  25  39 NE6       30.25R
WASKISH        CLEAR     48  28  46 NE5       30.24R
CROOKSTON      CLEAR     52  28  40 NE8       30.25R
STEPHEN NDAWN    N/A     46  27  46 E6          N/A
GREENBUSH NDAW   N/A     48  34  57 E5          N/A
$$
  *****  WEATHER ACROSS CENTRAL AND WEST MINNESOTA  *****

CITY           SKY/WX    TMP DP  RH WIND       PRES   REMARKS
FOSSTON        CLEAR     46  28  49 NE9       30.22R
BEMIDJI        CLEAR     46  28  50 NE7       30.21R
PARK RAPIDS    CLEAR     53  27  36 NE9       30.17R
ELBOW LAKE     FAIR      49  31  49 E8        30.15R
WADENA         PTCLDY    46  30  53 E5        30.16S
DETROIT LAKES  CLEAR     50  32  50 NE5       30.18R
MOORHEAD       CLOUDY    54  28  37 NE15      30.18R
FERGUS FALLS   CLOUDY    52  32  46 CALM      30.13S
MORRIS MN      PTCLDY    50  30  46 E13       30.13R
STAPLES        CLOUDY    46  27  46 E6        30.18R
$$
  *****  WEATHER ELSEWHERE ACROSS MINNESOTA  *****

CITY           SKY/WX    TMP DP  RH WIND       PRES   REMARKS
DULUTH         CLOUDY    40  26  57 NE13      30.23S
INTRNTL FALLS  CLEAR     50  27  40 NE3       30.25R
ELY            CLEAR     39  27  60 CALM      30.25S
CLOQUET        CLOUDY    41  25  52 NE9G17    30.22S
WHEATON        CLOUDY    52  34  50 E12       30.16R
BRAINERD       CLOUDY    46  27  47 E9G18     30.19R
HIBBING        CLEAR     40  27  59 E5        30.23R
ALEXANDRIA     CLOUDY    48  29  47 E12       30.15R
SAINT CLOUD    CLOUDY    48  28  46 NE13G24   30.13R
MINNEAPOLIS    CLOUDY    52  30  43 NE16G29   30.08R
$$

  *****  WEATHER ACROSS SOUTH DAKOTA  *****

CITY           SKY/WX    TMP DP  RH WIND       PRES   REMARKS
SIOUX FALLS    CLOUDY    44  40  85 NE17      30.03R
BROOKINGS      CLOUDY    46  40  79 E7        30.06R
WATERTOWN      CLOUDY    50  35  56 NE13      30.09R
HURON          CLOUDY    50  38  63 NE9       30.08R
SISSETON         N/A     52  33  48 E8        30.12R
ABERDEEN       MOCLDY    53  31  42 NE9       30.13R
MITCHELL       LGT RAIN  45  43  93 NE8       30.08R
PIERRE         CLOUDY    48  38  68 NE8       30.11R
MOBRIDGE       MOCLDY    52  29  41 NE13      30.15R
RAPID CITY     CLOUDY    44  31  60 NE12      30.16R
$$

  *****  SOME WEATHER IN NEARBY STATES *****

CITY           SKY/WX    TMP DP  RH WIND       PRES   REMARKS
GLASGOW MT     PTCLDY    56  31  38 E7        30.28R
GREAT FALLS MT CLOUDY    50  34  54 E9        30.29R
CHEYENNE WY    LGT SNOW  31  28  89 N17G28    30.12R FOG     WCI  19
SCOTTSBLUFF NE LGT RAIN  37  32  82 N9        30.13R
OMAHA NE       CLOUDY    50  47  89 E17G24    29.83R
DES MOINES IA  DRIZZLE   48  44  86 E13G23    29.86R FOG
DAVENPORT IA   CLOUDY    45  43  93 E21G28    29.89S FOG
CHICAGO IL     LGT RAIN  45  44  97 NE15      29.93S FOG
EAU CLAIRE WI  CLOUDY    50  34  54 SE9       30.06R
LA CROSSE WI   LGT RAIN  45  39  79 CALM      30.04R
$$

  *****  SOME NATIONAL WEATHER *****

CITY           SKY/WX    TMP DP  RH WIND       PRES   REMARKS
LA GUARDIA NY  PTCLDY    51  38  60 S8        30.24S
RALEIGH NC     CLOUDY    61  55  82 E6        30.17R
ATLANTA GA     CLOUDY    69  63  81 E9        29.98S
NEW ORLEANS LA MOCLDY    71  66  84 SE7       29.85R
OKLAHOMA CITY  CLEAR     62  45  53 N10       29.88R
ALBUQUERQUE NM CLOUDY    51  44  77 N8        29.89R
SALT LAKE CITY CLOUDY    57  27  31 VRB3      29.95R
LOS ANGELES CA PTCLDY    62  48  60 SW8       29.80S
BOISE ID       CLEAR     62  35  36 NW17G25   30.02R
SEATTLE WA     MOSUNNY   66  40  38 N8        30.30F
$$

*** WEATHER ACROSS MANITOBA...SASKATCHEWAN AND ONTARIO ***
                ***ONTARIO***

CITY           SKY/WX    TMP DP  RH WIND       PRES   REMARKS
GERALDTON      MOCLDY    41  28  60 NE7       30.33R
THUNDER BAY    PTCLDY    45  28  53 NE7       30.28R
SIOUX LOOKOUT  PTCLDY    46  28  49 E3        30.29R
TORONTO        CLOUDY    52  27  37 E5        30.11S
BIG TROUT LK   CLEAR     39  28  65 E6        30.35R
PICKLE LAKE    CLEAR     43  27  52 E5        30.31S
DRYDEN         CLEAR     48  28  46 E3        30.28R
KENORA         CLEAR     50  25  37 NE5       30.29R
$$
                *** MANITOBA***

CITY           SKY/WX    TMP DP  RH WIND       PRES   REMARKS
BRANDON        PTCLDY    48  28  46 E7        30.32R
DAUPHIN        CLEAR     50  27  40 NE3       30.34R
ISLAND LAKE    PTCLDY    54  27  35 SE2       30.30R
PILOT MOUND      N/A     52  25  35 NE7         N/A
THE PAS        MOCLDY    55  32  41 SE9       30.29S
THOMPSON       PTCLDY    61  25  25 VRB2      30.23S
WINNIPEG       PTCLDY    52  28  40 NE10      30.30R
LYNN LAKE      CLEAR     61  23  23 SW3       30.20S
CHURCHILL      PTCLDY    27  25  93 SE14      30.34S WCI  15
GILLAM         PTCLDY    48  28  46 E5        30.29R
$$
                ***SASKATCHEWAN***

CITY           SKY/WX    TMP DP  RH WIND       PRES   REMARKS
ESTEVAN        PTCLDY    50  27  40 E8        30.30R
KINDERSLEY     MOCLDY    59  32  36 NW6       30.27S
LLOYDMINSTER   PTCLDY    55  36  47 SW8       30.24S
PRINCE ALBERT  PTCLDY    61  27  27 S7        30.26S
REGINA         PTCLDY    55  23  28 E9        30.31R
YORKTON        CLEAR     55  27  33 SE8       30.32R
N. BATTLEFORD  CLEAR     61  32  33 W10       30.27S
LA RONGE       PTCLDY    63  25  23 S7        30.20F
SASKATOON      PTCLDY    61  27  27 S7        30.28F
SWIFT CURRENT  PTCLDY    57  27  30 SE7       30.28R
$$
NOTE: THESE ARE AUTOMATED STATIONS WITH LIMITED QUALITY CONTROL
      "FAIR" INDICATES FEW OR NO CLOUDS BELOW 12,000 FEET WITH NO
      SIGNIFICANT WEATHER AND/OR OBSTRUCTIONS TO VISIBILITY.
      SKY/WX - SKY CONDITION AND SIGNIFICANT WEATHER.
      TMP - AIR TEMPERATURE.    DP   - DEWPOINT TEMPERATURE.
      RH  - RELATIVE HUMIDITY.  PRES - PRESSURE.
      HX  - HEAT INDEX.         WCI  - WIND CHILL INDEX.
$




USA.gov is the U.S. government's official web portal to all federal, state and local government web resources and services.